Location: ????????
(60.4333°N, 46.4710°E)
Time: 03:23:59
(UTC+00:00)

CSL-04 Rocket - Pass Details

Date: 25 November 2020
Orbit: 807 x 859 km, 98.9° (Epoch: 19 January)

Event Time Altitude Azimuth Distance (km) Brightness Sun altitude
Exits shadow 14:21:27 12° 121° (ESE) 2,274 5.5 -15.7°
Maximum altitude 14:26:00 40° 56° (NE) 1,196 4.0 -16.2°
Drops below altitude 10° 14:30:55 10° 348° (NNW) 2,412 6.1 -16.8°
Sets 14:33:22 0° 342° (NNW) 3,344 6.9 -17.1°
